Probability
0 0 0 0 0 0 0 0 0 0 0 0 0 0 0 0 0 0 0 0 0 0 0 0 0 0 0 0 0 0 1 1 1 1 1 1 0 0 0 0 0 0 0 0
0 0 0 0 0 0 0 0 0 0 0 0 0 0 0 0 0 0 0 0 0 0 0 0 0 0 0 1 1 1 1 2 2 2 2 1 0 0 0 0 0 0 0 0
0 0 0 0 0 0 0 0 0 0 0 0 0 0 0 0 0 0 0 0 0 0 0 0 0 0 1 2 2 1 1 2 2 2 1 1 0 0 0 0 0 0 0 0
0 0 0 0 0 0 0 0 0 0 0 0 0 0 0 0 0 0 0 0 0 0 0 0 0 0 1 2 3 3 2 2 2 1 0 0 0 0 0 0 0 0 0 0
0 0 0 0 0 0 0 0 0 0 0 0 0 0 0 0 0 0 0 0 0 0 0 0 0 0 1 2 3 3 3 3 2 1 0 0 0 0 0 0 0 0 0 0
0 0 0 0 0 0 0 0 0 0 0 0 0 0 0 0 0 0 0 0 0 0 0 0 0 0 1 2 3 3 3 3 3 1 0 0 0 0 0 0 0 0 0 0
0 0 0 0 0 0 0 0 0 0 0 0 0 0 0 0 0 0 0 0 0 0 0 0 0 0 0 1 2 2 3 3 2 1 0 0 0 0 0 0 0 1 1 0
0 0 0 0 0 0 0 0 0 0 0 0 0 0 0 0 0 0 0 0 0 0 0 0 0 0 0 0 1 1 1 2 1 1 0 0 0 0 0 0 0 1 1 1
0 0 0 0 0 0 0 0 0 0 0 0 0 0 0 0 0 0 0 0 0 0 0 0 0 0 0 0 0 0 0 0 0 0 0 0 0 0 0 1 1 1 1 0
0 0 0 0 0 0 0 0 0 0 0 0 0 0 0 0 0 0 0 0 0 0 0 0 0 0 0 0 0 0 0 0 0 0 0 0 0 0 0 1 2 1 0 0
0 0 0 0 0 0 0 0 0 0 0 0 0 0 0 0 0 0 0 0 0 0 0 0 0 0 0 0 0 0 0 0 0 0 0 0 0 0 0 1 1 1 0 0
0 0 0 0 0 0 0 0 0 0 0 0 0 0 0 0 0 0 0 0 0 0 0 0 0 0 0 0 0 0 0 0 0 0 0 0 0 0 0 0 0 0 0 0
0 0 0 0 0 0 0 0 0 0 0 0 0 0 0 0 0 0 0 0 0 0 0 0 0 0 0 0 0 0 0 0 0 0 0 0 0 0 0 0 0 0 0 0
0 0 0 0 0 0 0 0 0 0 0 0 0 0 0 0 0 0 0 0 0 0 0 0 0 0 0 0 0 0 0 0 0 0 0 0 0 0 0 0 0 0 0 0
0 0 0 0 0 0 0 0 0 0 0 0 0 0 0 0 0 0 0 0 0 0 0 0 0 0 0 0 0 0 0 0 0 0 0 0 0 0 0 0 0 0 0 0
0 0 0 0 0 0 0 0 0 0 0 0 0 0 0 0 0 0 0 0 0 0 0 0 0 0 0 0 0 0 0 0 0 0 0 0 0 0 0 0 0 0 0 0
0 0 0 0 0 0 0 0 0 0 0 0 0 0 0 0 0 0 0 0 0 0 0 0 0 0 0 0 0 0 0 0 0 0 0 0 0 0 0 0 0 0 0 0
0 0 0 0 0 0 0 0 0 0 0 0 0 0 0 0 0 0 0 0 0 0 0 0 0 0 0 0 0 0 0 0 0 0 0 0 0 0 0 0 0 0 0 0
0 0 0 0 0 0 0 0 0 0 0 0 0 0 0 0 0 0 0 0 0 0 0 0 0 0 0 0 0 0 0 0 0 0 0 0 0 0 0 0 0 0 0 0
0 0 0 0 0 0 0 0 0 0 0 0 0 0 0 0 0 0 0 0 0 0 0 0 0 0 0 0 0 0 0 0 0 0 0 0 0 0 0 0 0 0 0 0
0 0 0 0 0 0 0 0 0 0 0 0 0 0 0 0 0 0 0 0 0 0 0 0 0 0 0 0 0 0 0 0 0 0 0 0 0 0 0 0 0 0 0 0
0 0 0 0 0 0 0 0 0 0 0 0 0 0 0 0 0 0 0 0 0 0 0 0 0 0 0 0 0 0 0 0 0 0 0 0 0 0 0 0 0 0 0 0
0 0 0 0 0 0 0 0 0 0 0 0 0 0 0 0 0 0 0 0 0 0 0 0 0 0 0 0 0 0 0 0 0 0 0 0 0 0 0 0 0 0 0 0
0 0 0 0 0 0 0 0 0 0 0 0 0 0 0 0 0 0 0 0 0 0 0 0 0 0 0 0 0 0 0 0 0 0 0 0 0 0 0 0 0 0 0 0
0 0 0 0 0 0 0 0 0 0 0 0 0 0 0 0 0 0 0 0 0 0 0 0 0 0 0 0 0 0 0 0 0 0 0 0 0 0 0 0 0 0 0 0
0 0 0 0 0 0 0 0 0 0 0 0 0 0 0 0 0 0 0 0 0 0 0 0 0 0 0 0 0 0 0 0 0 0 0 0 0 0 0 0 0 0 0 0
Wind_Speed
3 4 1 1 1 1 2 2 1 1 1 1 2 3 4 2 1 0 1 1 1 1 2 1 1 1 2 2 2 1 1 2 2 1 1 1 2 2 2 2 3 3 3 2
4 1 2 1 1 0 1 1 1 2 2 0 1 3 3 2 2 2 3 3 2 1 2 2 2 2 2 1 1 1 1 2 1 1 1 1 1 2 2 3 4 4 4 3
3 1 1 1 2 1 2 2 2 2 3 1 0 3 3 3 1 1 2 2 2 1 1 1 1 1 1 1 0 1 1 1 1 2 2 3 2 2 2 3 3 4 4 4
1 3 1 1 0 0 3 3 3 2 1 2 1 3 5 3 2 2 2 2 2 2 2 2 1 1 1 2 1 1 1 1 1 1 2 2 1 2 3 3 3 4 3 4
1 2 2 0 1 1 2 2 2 2 2 1 1 2 6 2 4 5 4 3 3 3 2 1 2 2 1 1 1 1 1 2 2 2 1 1 2 3 2 2 3 3 3 4
1 2 1 1 1 1 1 2 2 3 2 3 4 4 6 4 6 4 3 2 2 1 1 1 2 2 2 2 2 2 2 2 2 2 2 2 3 3 3 3 4 3 3 3
4 3 3 1 2 3 3 4 3 3 2 6 3 4 7 5 3 3 3 2 0 1 2 3 3 4 4 4 3 3 3 3 4 3 3 3 3 3 3 4 4 4 3 3
1 4 3 1 1 1 1 4 4 4 4 4 2 5 6 3 1 2 2 1 1 2 2 2 2 3 3 4 4 4 4 4 4 4 4 4 3 3 3 4 4 4 4 4
2 3 3 2 1 3 3 1 2 3 1 2 5 5 6 1 1 1 1 2 1 1 1 1 2 2 2 3 4 4 4 4 5 4 4 4 4 4 4 4 4 3 4 5
2 2 4 3 2 2 2 3 3 3 2 3 5 4 4 3 3 1 1 1 2 2 2 2 2 2 3 3 3 4 4 4 4 4 4 4 4 4 4 4 4 4 5 5
1 1 3 2 0 2 1 2 2 2 3 3 3 6 4 4 3 2 2 2 2 3 3 2 2 3 3 3 3 4 4 5 5 5 4 4 4 4 4 4 5 5 5 5
0 2 2 4 3 1 2 3 4 3 3 3 3 7 3 1 1 1 2 3 3 3 2 2 3 3 3 4 4 4 4 5 5 5 5 5 5 5 5 5 5 5 5 5
2 3 2 5 3 2 1 2 3 3 2 3 4 8 2 2 2 2 2 4 4 4 3 3 3 3 4 4 4 4 5 5 6 5 5 5 5 5 5 5 5 5 5 5
3 3 4 6 5 2 3 3 3 4 4 5 9 9 7 5 5 5 4 5 4 3 3 3 2 3 4 4 4 4 5 5 6 6 6 6 6 6 6 6 6 6 6 6
3 2 3 5 6 4 6 7 6 8 8 8 9 9 11 8 6 5 5 5 4 4 3 3 3 3 4 4 4 4 5 5 6 5 5 6 6 6 6 6 6 6 6 6
2 1 1 4 4 4 8 10 10 11 10 10 11 13 10 7 4 4 5 4 4 4 4 3 3 3 4 4 5 5 5 6 5 5 5 6 6 6 6 7 7 7 7 7
2 3 1 4 5 5 8 9 10 7 7 8 11 11 5 4 5 5 5 5 4 4 4 4 4 4 4 4 4 5 5 6 5 5 5 6 6 7 7 7 7 8 8 7
4 4 2 2 4 5 8 1 4 6 7 8 8 7 5 6 5 4 4 3 3 3 3 4 4 4 4 4 4 4 5 5 5 5 6 6 6 7 8 7 8 8 7 7
4 5 3 1 2 10 10 4 4 5 6 7 8 8 6 3 2 4 3 3 4 4 4 4 4 4 4 4 4 4 5 4 5 6 6 7 7 8 8 8 8 8 7 8
2 3 4 3 3 8 7 3 1 2 6 5 6 7 6 1 3 6 3 3 4 4 3 3 4 4 4 4 4 4 5 5 6 7 8 7 7 8 8 9 9 8 7 8
2 2 4 5 6 12 9 3 3 4 8 3 5 5 4 5 7 5 3 3 3 3 3 3 3 3 4 5 4 5 6 7 7 7 8 8 7 8 8 8 7 8 8 8
9 7 7 6 6 14 6 6 8 10 3 2 3 4 5 5 5 4 4 4 4 4 4 3 3 4 4 4 4 6 7 7 7 8 8 8 8 7 7 7 8 7 7 8
10 11 9 12 13 7 6 9 7 3 3 4 3 4 4 4 5 5 5 5 5 5 4 4 4 5 5 4 4 6 8 7 7 8 9 9 9 8 7 7 8 7 6 6
6 5 5 8 12 10 8 7 5 4 5 5 4 3 3 5 6 6 5 5 5 5 5 4 4 6 6 5 5 6 7 7 7 8 9 8 8 8 7 6 6 6 6 6
9 7 6 9 10 7 8 9 9 7 5 4 4 4 5 5 6 6 6 6 5 5 4 4 5 6 7 6 6 7 6 6 7 8 8 8 7 7 7 6 6 7 7 7
10 11 11 13 10 8 7 6 6 6 6 6 5 5 4 5 6 5 6 5 5 5 5 5 6 7 7 7 7 7 6 5 6 7 7 6 6 6 6 6 7 9 10 12
Wind_Direction
40 65 75 235 211 168 138 133 180 251 284 97 191 241 275 302 16 116 166 177 195 233 264 347 9 26 49 43 33 30 26 6 20 4 348 334 323 320 336 337 338 339 345 332
61 9 280 316 326 202 123 162 269 318 338 80 219 260 268 236 196 198 203 214 220 258 350 12 21 29 43 59 40 21 352 356 359 334 302 315 303 323 345 342 343 347 344 342
117 294 304 67 16 263 246 208 222 259 341 359 40 302 269 268 238 225 237 226 216 180 212 274 340 354 13 4 309 344 314 328 337 354 16 17 19 3 358 343 328 333 335 331
59 320 9 94 8 279 247 235 222 214 204 270 175 276 265 244 251 233 239 241 233 242 242 249 261 268 275 274 286 295 319 351 355 15 25 29 2 304 292 310 315 326 329 328
327 344 44 104 261 219 265 295 215 203 191 268 278 241 275 236 238 240 235 234 240 240 235 256 271 259 269 285 317 320 344 353 357 8 349 320 304 289 306 326 323 322 318 317
307 325 358 273 300 200 285 31 46 49 79 255 228 208 269 228 222 229 228 234 254 287 324 332 340 351 348 348 354 356 3 348 343 343 339 327 307 310 324 325 314 311 309 308
338 329 332 5 20 13 54 81 45 8 349 250 239 217 250 244 219 197 201 207 149 32 36 17 8 5 359 358 356 357 4 348 345 343 332 312 301 298 291 292 293 300 301 301
49 310 307 338 176 191 132 131 153 192 227 275 275 233 255 255 202 147 139 127 75 28 21 16 4 4 1 359 355 355 358 349 348 346 334 329 327 313 299 298 299 295 292 292
155 270 307 309 299 132 122 142 164 131 54 281 262 272 294 313 34 68 76 56 21 323 332 333 341 354 354 355 350 347 350 346 346 343 337 333 329 323 313 312 311 306 304 302
155 260 298 308 22 27 127 138 103 123 156 261 280 261 247 236 243 278 328 324 309 315 312 316 330 341 342 341 337 345 346 335 329 331 330 333 325 320 315 316 311 309 309 309
91 149 314 356 165 195 112 121 127 137 164 180 262 267 231 221 217 218 259 289 297 286 287 305 327 330 334 340 341 340 339 335 333 330 326 326 320 318 319 316 312 312 311 311
65 118 275 272 280 262 168 175 157 169 234 209 238 269 298 232 214 194 296 307 304 291 302 318 320 331 343 344 339 336 334 331 324 319 320 320 320 324 325 321 318 318 315 313
125 111 24 339 333 354 257 203 178 164 163 196 207 257 304 7 345 309 294 298 298 305 312 321 326 335 340 338 337 335 333 328 324 321 321 323 325 325 323 321 321 321 317 313
106 136 179 209 234 223 253 245 197 167 195 225 230 251 274 285 288 289 287 285 286 289 298 315 328 337 336 333 334 336 333 331 329 328 325 324 325 325 323 323 322 320 317 313
105 187 236 256 267 261 253 250 227 214 209 217 242 248 262 263 259 257 262 268 274 283 289 299 312 321 321 322 325 328 327 328 327 325 322 317 321 323 322 321 319 316 314 310
103 170 293 292 281 279 269 254 236 236 231 236 255 268 262 265 262 259 259 260 270 276 278 283 297 306 309 314 317 321 321 321 320 316 314 317 320 320 318 316 316 316 312 307
157 133 71 280 319 351 279 242 215 215 213 207 232 247 260 272 266 259 260 256 261 277 281 282 285 286 293 298 305 307 308 313 317 317 317 318 317 313 312 313 312 308 305 303
157 137 147 301 13 253 246 247 202 216 241 226 236 253 257 246 259 265 246 234 260 274 281 287 291 293 294 293 295 299 307 313 315 313 311 313 313 310 309 308 304 302 299 296
176 154 144 149 271 280 289 262 200 206 263 234 231 252 260 254 313 292 251 231 242 257 266 272 277 284 292 298 302 306 310 312 311 310 310 311 309 304 304 303 301 299 298 296
119 133 139 154 213 249 253 242 212 104 280 247 215 236 249 243 287 276 266 264 267 273 277 281 290 297 302 304 309 310 308 310 308 306 303 302 299 296 296 295 296 295 293 291
143 168 189 197 231 261 254 229 126 174 245 234 204 219 219 217 233 256 272 276 272 278 284 292 296 297 300 310 316 305 302 300 300 301 300 299 297 293 290 291 292 295 295 293
180 179 194 176 212 253 220 158 191 219 226 207 210 218 225 240 256 271 278 277 281 287 290 296 294 292 296 310 311 299 294 299 305 304 301 298 296 293 293 293 294 295 296 294
204 195 188 195 217 238 191 202 219 209 217 231 231 236 225 244 259 269 272 273 278 280 285 290 287 292 298 306 303 292 296 305 306 303 297 294 295 293 293 291 293 296 295 290
236 197 203 240 254 249 244 245 252 235 231 242 236 236 231 247 258 267 269 275 279 282 285 292 292 290 293 298 296 285 294 301 297 291 292 293 294 295 294 290 287 287 287 287
214 186 210 245 260 272 255 237 238 240 236 241 247 243 241 244 258 262 268 273 275 281 285 282 277 281 286 294 293 291 294 295 290 288 289 292 290 290 291 289 282 283 277 276
197 192 201 231 223 211 232 224 213 214 228 232 237 251 253 245 254 263 268 272 275 279 283 280 277 280 285 288 287 287 287 285 284 289 290 288 287 287 287 292 295 290 289 292